Location: Centerville
(32.8776°N, 96.6203°W)
Time: 05:34:05
(UTC+00:00)

Cosmos 2227 - Pass Details

Date: 17 June 2021
Orbit: 835 x 860 km, 71.0° (Epoch: 29 July)

Event Time Altitude Azimuth Distance (km) Brightness Sun altitude
Rises 02:53:42 0° 344° (NNW) 3,387 8.3 -14.1°
Reaches altitude 10° 02:56:11 10° 348° (NNW) 2,449 7.4 -14.5°
Maximum altitude 03:01:42 57° 67° (ENE) 976 4.4 -15.4°
Enters shadow 03:04:56 25° 137° (SE) 1,639 5.1 -15.9°
